| time (UTC) | temp F | wind direction | speed knots | gust knots | rain 1hr in | rain 24hr in | rain mn in | humidity % | barometer mb |
| 20260904044551 | 79 | 47 | 2.6 | 5.2 | 0.00 | 0.00 | 0.00 | 25 | 1000.4 |
| 20260904043046 | 80 | 80 | 3.5 | 7.0 | 0.00 | 0.00 | 0.00 | 25 | 1000.5 |
| 20260904041545 | 79 | 52 | 0.9 | 7.8 | 0.00 | 0.00 | 0.00 | 28 | 1000.6 |
| 20260904040044 | 77 | 36 | 4.3 | 5.2 | 0.00 | 0.00 | 0.00 | 30 | 1000.7 |
| 20260904034558 | 76 | 15 | 1.7 | 2.6 | 0.00 | 0.00 | 0.00 | 29 | 1000.6 |
| 20260904033043 | 78 | 14 | 0.0 | 1.7 | 0.00 | 0.00 | 0.00 | 27 | 1000.4 |
| 20260904031543 | 80 | 34 | 0.0 | 0.9 | 0.00 | 0.00 | 0.00 | 25 | 1000.3 |
| 20260904030043 | 82 | 19 | 0.0 | 1.7 | 0.00 | 0.00 | 0.00 | 22 | 1000.2 |
| 20260904024542 | 84 | 62 | 0.0 | 2.6 | 0.00 | 0.00 | 0.00 | 21 | 1000.2 |
| 20260904023042 | 83 | 92 | 1.7 | 3.5 | 0.00 | 0.00 | 0.00 | 21 | 1000.0 |
| 20260904021547 | 83 | 30 | 0.0 | 2.6 | 0.00 | 0.00 | 0.00 | 22 | 999.7 |
| 20260904020042 | 86 | 68 | 0.0 | 2.6 | 0.00 | 0.00 | 0.00 | 19 | 999.7 |
| 20260904014545 | 87 | 126 | 0.9 | 3.5 | 0.00 | 0.00 | 0.00 | 18 | 999.5 |
| 20260904013040 | 89 | 105 | 0.0 | 2.6 | 0.00 | 0.00 | 0.00 | 18 | 999.4 |
| 20260904011543 | 90 | 78 | 1.7 | 2.6 | 0.00 | 0.00 | 0.00 | 16 | 999.2 |
| 20260904010050 | 91 | 116 | 0.9 | 3.5 | 0.00 | 0.00 | 0.00 | 15 | 999.1 |
| 20260904004555 | 92 | 10 | 0.0 | 4.3 | 0.00 | 0.00 | 0.00 | 15 | 999.1 |
| 20260904003037 | 92 | 43 | 1.7 | 6.1 | 0.00 | 0.00 | 0.00 | 15 | 999.2 |
| 20260904001537 | 93 | 57 | 4.3 | 7.0 | 0.00 | 0.00 | 0.00 | 15 | 999.3 |
| 20260904000038 | 94 | 113 | 2.6 | 6.1 | 0.00 | 0.00 | 0.00 | 15 | 999.2 |
| 20260903234542 | 93 | 230 | 0.9 | 6.1 | 0.00 | 0.00 | 0.00 | 16 | 999.4 |
| 20260903233035 | 93 | 74 | 2.6 | 6.1 | 0.00 | 0.00 | 0.00 | 15 | 999.3 |
| 20260903231534 | 95 | 164 | 0.0 | 2.6 | 0.00 | 0.00 | 0.00 | 15 | 999.4 |
| 20260903230032 | 94 | 167 | 1.7 | 5.2 | 0.00 | 0.00 | 0.00 | 16 | 999.6 |
| 20260903224532 | 94 | 228 | 2.6 | 6.1 | 0.00 | 0.00 | 0.00 | 16 | 999.7 |
| 20260903223036 | 93 | 309 | 0.9 | 5.2 | 0.00 | 0.00 | 0.00 | 17 | 999.7 |
| 20260903221526 | 94 | 311 | 3.5 | 6.1 | 0.00 | 0.00 | 0.00 | 16 | 999.9 |
| 20260903220035 | 93 | 11 | 2.6 | 7.0 | 0.00 | 0.00 | 0.00 | 16 | 1000.0 |
| 20260903214522 | 93 | 214 | 3.5 | 5.2 | 0.00 | 0.00 | 0.00 | 17 | 1000.2 |
| 20260903213032 | 93 | 99 | 2.6 | 6.1 | 0.00 | 0.00 | 0.00 | 18 | 1000.4 |
| 20260903211547 | 91 | 72 | 2.6 | 10.4 | 0.00 | 0.00 | 0.00 | 18 | 1000.6 |
| 20260903210016 | 92 | 253 | 0.9 | 7.0 | 0.00 | 0.00 | 0.00 | 18 | 1000.7 |
| 20260903204514 | 91 | 144 | 1.7 | 7.8 | 0.00 | 0.00 | 0.00 | 18 | 1000.9 |
| 20260903203012 | 91 | 261 | 0.9 | 5.2 | 0.00 | 0.00 | 0.00 | 18 | 1001.1 |
| 20260903201510 | 91 | 284 | 2.6 | 6.1 | 0.00 | 0.00 | 0.00 | 18 | 1001.3 |
| 20260903200009 | 90 | 144 | 4.3 | 7.8 | 0.00 | 0.00 | 0.00 | 18 | 1001.6 |
| 20260903194506 | 89 | 223 | 1.7 | 6.1 | 0.00 | 0.00 | 0.00 | 19 | 1001.6 |
| 20260903193004 | 88 | 280 | 1.7 | 7.0 | 0.00 | 0.00 | 0.00 | 19 | 1002.0 |
| 20260903191503 | 88 | 128 | 0.9 | 7.8 | 0.00 | 0.00 | 0.00 | 21 | 1002.2 |
| 20260903190101 | 88 | 161 | 3.5 | 9.6 | 0.00 | 0.00 | 0.00 | 20 | 1002.3 |
| 20260903184603 | 88 | 38 | 0.9 | 7.0 | 0.00 | 0.00 | 0.00 | 20 | 1002.5 |
| 20260903183056 | 87 | 345 | 0.9 | 4.3 | 0.00 | 0.00 | 0.00 | 20 | 1002.7 |
| 20260903181554 | 87 | 209 | 2.6 | 7.8 | 0.00 | 0.00 | 0.00 | 22 | 1002.9 |
| 20260903180105 | 87 | 182 | 4.3 | 7.0 | 0.00 | 0.00 | 0.00 | 21 | 1003.1 |
| 20260903174609 | 87 | 1 | 2.6 | 4.3 | 0.00 | 0.00 | 0.00 | 22 | 1003.2 |
| 20260903173055 | 86 | 18 | 1.7 | 4.3 | 0.00 | 0.00 | 0.00 | 23 | 1003.4 |
| 20260903171551 | 85 | 284 | 3.5 | 6.1 | 0.00 | 0.00 | 0.00 | 23 | 1003.5 |
| 20260903170106 | 86 | 216 | 2.6 | 5.2 | 0.00 | 0.00 | 0.00 | 23 | 1003.4 |
| 20260903164552 | 84 | 313 | 0.0 | 3.5 | 0.00 | 0.00 | 0.00 | 24 | 1003.5 |
| 20260903163045 | 83 | 149 | 3.5 | 7.8 | 0.00 | 0.00 | 0.00 | 25 | 1003.6 |
| 20260903161544 | 83 | 138 | 0.9 | 6.1 | 0.00 | 0.00 | 0.00 | 26 | 1003.6 |
| 20260903160046 | 84 | 250 | 0.9 | 4.3 | 0.00 | 0.00 | 0.00 | 25 | 1003.7 |
| 20260903154540 | 81 | 53 | 2.6 | 7.8 | 0.00 | 0.00 | 0.00 | 26 | 1003.9 |
| 20260903153044 | 82 | 153 | 0.9 | 3.5 | 0.00 | 0.00 | 0.00 | 28 | 1003.9 |
| 20260903151544 | 80 | 281 | 0.0 | 2.6 | 0.00 | 0.00 | 0.00 | 28 | 1004.1 |
| 20260903150030 | 78 | 351 | 0.0 | 3.5 | 0.00 | 0.00 | 0.00 | 30 | 1004.2 |
| 20260903144628 | 77 | 327 | 0.9 | 2.6 | 0.00 | 0.00 | 0.00 | 31 | 1004.4 |
| 20260903143025 | 75 | 22 | 1.7 | 6.1 | 0.00 | 0.00 | 0.00 | 34 | 1004.2 |
| 20260903141523 | 75 | 87 | 3.5 | 7.0 | 0.00 | 0.00 | 0.00 | 35 | 1004.4 |
| 20260903140022 | 73 | 292 | 0.0 | 7.8 | 0.00 | 0.00 | 0.00 | 36 | 1004.3 |
| 20260903134520 | 70 | 88 | 1.7 | 6.1 | 0.00 | 0.00 | 0.00 | 38 | 1004.4 |
| 20260903133018 | 65 | 82 | 2.6 | 4.3 | 0.00 | 0.00 | 0.00 | 49 | 1004.2 |
| 20260903131517 | 64 | 244 | 0.0 | 0.9 | 0.00 | 0.00 | 0.00 | 51 | 1004.0 |
| 20260903130014 | 64 | 167 | 0.0 | 0.0 | 0.00 | 0.00 | 0.00 | 49 | 1004.1 |
| 20260903124512 | 63 | 49 | 0.0 | 3.5 | 0.00 | 0.00 | 0.00 | 52 | 1004.0 |
| 20260903123011 | 63 | 103 | 1.7 | 5.2 | 0.00 | 0.00 | 0.00 | 53 | 1003.9 |
| 20260903121507 | 64 | 351 | 0.0 | 0.9 | 0.00 | 0.00 | 0.00 | 43 | 1003.5 |
| 20260903120004 | 65 | 351 | 0.0 | 0.0 | 0.00 | 0.00 | 0.00 | 41 | 1003.3 |
| 20260903114502 | 66 | 351 | 0.0 | 0.0 | 0.00 | 0.00 | 0.00 | 39 | 1003.3 |
| 20260903113001 | 66 | 351 | 0.0 | 0.0 | 0.00 | 0.00 | 0.00 | 41 | 1003.2 |
| 20260903111625 | 67 | 351 | 0.0 | 0.0 | 0.00 | 0.00 | 0.00 | 39 | 1003.1 |
| 20260903110110 | 67 | 351 | 0.9 | 2.6 | 0.00 | 0.00 | 0.00 | 41 | 1003.1 |
| 20260903104622 | 69 | 351 | 0.0 | 1.7 | 0.00 | 0.00 | 0.00 | 37 | 1003.1 |
| 20260903103051 | 70 | 7 | 2.6 | 3.5 | 0.00 | 0.00 | 0.00 | 36 | 1003.2 |
| 20260903101551 | 72 | 351 | 0.9 | 5.2 | 0.00 | 0.00 | 0.00 | 33 | 1003.2 |
| 20260903100050 | 72 | 356 | 0.9 | 4.3 | 0.00 | 0.00 | 0.00 | 34 | 1003.2 |
| 20260903094558 | 72 | 82 | 2.6 | 4.3 | 0.00 | 0.00 | 0.00 | 33 | 1003.3 |
| 20260903093049 | 73 | 215 | 0.9 | 5.2 | 0.00 | 0.00 | 0.00 | 33 | 1003.1 |
| 20260903091547 | 71 | 223 | 0.9 | 5.2 | 0.00 | 0.00 | 0.00 | 35 | 1003.0 |
| 20260903090050 | 70 | 234 | 3.5 | 7.0 | 0.00 | 0.00 | 0.00 | 36 | 1003.1 |
| 20260903084544 | 71 | 301 | 0.0 | 2.6 | 0.00 | 0.00 | 0.00 | 37 | 1003.1 |
| 20260903083044 | 71 | 123 | 0.0 | 3.5 | 0.00 | 0.00 | 0.00 | 39 | 1003.2 |
| 20260903081543 | 71 | 161 | 0.9 | 4.3 | 0.00 | 0.00 | 0.00 | 37 | 1003.0 |
| 20260903080041 | 72 | 180 | 0.0 | 4.3 | 0.00 | 0.00 | 0.00 | 37 | 1002.9 |
| 20260903074540 | 76 | 234 | 1.7 | 4.3 | 0.00 | 0.00 | 0.00 | 30 | 1003.1 |
| 20260903073045 | 75 | 284 | 0.9 | 4.3 | 0.00 | 0.00 | 0.00 | 31 | 1003.0 |
| 20260903071537 | 75 | 305 | 3.5 | 7.0 | 0.00 | 0.00 | 0.00 | 30 | 1003.1 |
| 20260903070039 | 73 | 315 | 1.7 | 4.3 | 0.00 | 0.00 | 0.00 | 31 | 1003.2 |
| 20260903064532 | 73 | 333 | 1.7 | 5.2 | 0.00 | 0.00 | 0.00 | 31 | 1003.2 |
| 20260903063030 | 72 | 15 | 1.7 | 5.2 | 0.00 | 0.00 | 0.00 | 32 | 1003.3 |
| 20260903061537 | 72 | 30 | 0.9 | 3.5 | 0.00 | 0.00 | 0.00 | 32 | 1003.2 |
| 20260903060029 | 72 | 238 | 0.0 | 1.7 | 0.00 | 0.00 | 0.00 | 31 | 1002.9 |
| 20260903054524 | 74 | 238 | 0.0 | 1.7 | 0.00 | 0.00 | 0.00 | 28 | 1002.8 |
| 20260903053023 | 75 | 236 | 0.0 | 2.6 | 0.00 | 0.00 | 0.00 | 28 | 1002.7 |
| 20260903051523 | 74 | 196 | 0.0 | 2.6 | 0.00 | 0.00 | 0.00 | 27 | 1002.7 |
| 20260903050023 | 73 | 33 | 0.0 | 0.0 | 0.00 | 0.00 | 0.00 | 28 | 1002.6 |